GFSSGP_925_temp_000.txt.gz
Temp
23 23 23 23 22 19 21 23 25 26 28 28 28 27 26 27 25 25 26 27 27 27 25 24 24 23 23 23 22 22 21 20 19 19 19 18 17 17 17 17 17 17 17 17 17 17 17 18 18
24 23 23 21 21 21 21 23 26 26 28 28 28 28 29 29 27 26 25 27 27 28 26 25 25 24 24 23 22 22 21 20 19 19 18 18 18 17 17 17 17 17 17 17 17 17 17 18 18
24 24 23 21 19 20 23 25 27 26 26 28 29 28 28 29 27 26 27 28 27 27 26 26 26 25 24 23 23 22 20 19 19 18 18 18 18 18 17 17 17 17 18 18 18 18 17 17 18
23 22 20 21 21 21 23 25 26 25 28 27 28 29 27 29 27 29 28 27 27 27 27 26 26 25 24 23 23 22 21 20 19 18 18 17 17 17 18 17 17 17 17 18 18 18 17 17 17
23 19 20 20 21 22 24 24 25 26 27 28 28 29 27 28 28 28 28 27 28 27 26 26 26 25 24 24 23 22 21 21 19 18 18 18 18 17 17 17 17 17 17 18 18 18 18 17 17
21 19 20 20 22 24 24 24 26 27 28 28 28 26 27 26 27 28 27 28 28 28 27 26 25 25 24 24 23 22 21 21 20 18 18 18 17 17 17 17 17 17 17 17 17 17 17 17 17
21 19 20 21 23 24 25 25 27 28 27 28 27 28 26 25 27 28 28 27 27 27 26 26 25 25 24 23 22 22 21 21 20 19 18 18 18 17 16 16 16 16 16 16 16 17 17 17 17
21 20 22 20 23 24 26 28 27 28 28 27 26 27 27 26 28 27 26 26 26 26 26 26 25 24 23 22 22 21 21 20 20 19 18 18 17 17 16 15 15 15 16 16 16 16 16 16 16
21 20 20 21 22 24 25 27 26 29 28 29 28 27 27 28 25 24 23 23 24 24 24 25 24 24 23 22 21 21 20 20 19 19 18 17 17 16 16 16 15 15 15 15 15 16 16 16 16
21 19 21 24 24 24 24 25 25 26 26 26 27 27 28 25 23 22 21 21 22 23 24 24 24 23 22 21 21 20 20 20 19 18 18 17 17 16 16 15 15 15 15 15 16 16 16 16 16
20 23 24 25 25 25 24 24 26 26 26 27 26 27 26 22 21 21 22 22 23 25 24 24 23 23 22 21 21 20 20 19 18 18 17 16 16 16 16 15 15 15 15 16 16 16 16 16 16
21 22 24 25 25 24 24 25 25 25 26 27 27 25 25 21 20 21 21 22 23 23 25 24 23 22 21 21 21 21 20 19 18 17 17 16 16 16 16 15 16 15 15 16 16 16 16 15 16
21 22 24 23 23 24 24 24 25 26 27 26 25 24 23 21 22 23 24 24 23 23 24 23 22 21 21 21 21 20 19 18 18 17 17 16 16 16 16 16 16 16 15 16 15 15 15 15 15
21 22 23 23 24 25 24 25 25 26 27 25 25 24 23 21 22 22 22 23 24 24 24 23 22 21 21 21 20 20 19 18 18 17 17 16 16 16 16 16 16 15 16 15 15 15 15 15 15
22 21 21 23 25 24 25 24 25 27 26 24 25 25 23 21 22 21 23 24 25 23 23 23 22 21 22 21 20 19 19 18 18 18 17 16 16 16 16 16 16 16 15 15 15 15 15 15 15
23 22 21 24 24 24 24 23 26 26 25 25 25 25 23 21 21 23 24 24 24 23 23 22 21 22 21 20 20 19 19 18 18 17 17 16 16 16 16 16 16 15 15 15 15 15 15 15 15
19 21 21 22 24 24 23 24 26 25 26 24 24 23 23 22 20 22 24 24 23 23 22 21 21 21 21 20 19 19 19 19 18 18 17 17 16 16 15 15 15 15 15 15 15 15 14 15 15
19 19 20 22 25 23 22 22 25 25 25 23 23 22 22 21 22 23 22 22 22 22 22 22 21 21 20 20 19 19 19 19 19 18 17 17 16 16 15 15 15 15 14 14 14 14 14 15 15
21 21 21 22 24 24 22 22 23 24 23 23 24 24 23 22 22 22 20 20 20 21 21 21 21 20 19 19 18 19 19 19 19 18 17 17 16 16 15 15 15 15 14 15 14 14 14 14 15
20 20 21 22 24 23 22 22 23 24 24 23 25 25 24 22 21 17 16 17 19 19 20 20 20 20 19 19 19 19 19 18 18 18 17 16 16 15 15 15 15 14 14 14 14 13 14 14 15
20 20 21 21 24 23 22 22 23 24 23 23 23 21 21 20 19 17 15 16 17 17 19 20 20 20 19 19 20 19 18 18 18 17 17 16 16 15 15 15 14 14 14 14 14 14 14 14 14
20 22 22 22 22 20 22 18 21 22 24 23 24 23 22 21 19 15 15 14 17 17 20 20 20 20 20 19 19 19 18 17 17 16 16 15 15 15 15 14 14 14 14 14 14 14 15 15 15
21 24 22 22 21 20 21 19 22 22 22 24 23 23 22 21 16 15 15 16 17 19 20 20 20 20 20 20 19 19 18 17 17 16 15 15 15 15 15 15 15 15 15 15 15 15 15 15 16
23 23 21 19 18 19 21 20 20 21 24 25 24 24 23 18 15 14 15 17 17 19 19 19 20 20 20 19 19 19 19 18 17 16 15 15 15 15 15 15 15 15 15 15 15 15 15 15 16
22 19 17 15 15 18 21 20 23 22 22 24 25 23 19 16 15 15 16 16 15 17 19 19 20 20 20 19 19 19 18 18 17 16 15 14 14 15 15 16 16 16 16 16 16 16 15 15 16
22 20 16 18 18 20 20 20 23 23 24 23 23 22 16 14 15 16 17 16 16 17 18 19 20 20 19 19 19 19 18 17 17 15 15 15 15 15 15 16 16 16 16 16 16 16 16 16 16
21 19 21 20 20 19 19 21 24 24 25 25 23 19 16 14 15 16 16 15 16 17 18 20 20 19 20 20 19 19 18 18 17 15 15 15 15 15 15 16 16 16 16 16 16 16 16 16 16
21 21 20 19 18 20 20 21 22 26 25 25 21 18 15 14 14 16 15 15 17 18 19 20 20 20 20 20 19 19 19 18 17 16 16 15 15 15 15 16 16 16 16 16 16 16 15 15 15
20 20 19 20 17 18 18 20 20 24 24 24 21 18 15 15 15 16 15 16 17 19 19 20 20 20 20 20 19 19 19 18 17 16 16 15 15 15 15 15 16 16 15 15 16 14 14 14 14
23 22 19 21 18 19 19 19 23 22 22 21 21 18 15 15 15 16 15 15 16 17 18 19 20 20 20 20 20 19 20 18 17 16 16 15 15 15 15 15 15 16 15 15 15 14 15 14 14

GFSSGP_925_temp_003.txt.gz
Temp
23 23 23 24 26 26 27 29 28 30 31 31 31 31 32 32 31 33 27 25 26 27 26 26 26 25 25 24 24 23 23 22 22 21 20 20 20 19 19 19 19 19 18 17 17 17 17 18 18
23 23 23 26 26 26 29 28 30 31 31 31 31 31 31 33 30 31 28 26 27 28 27 25 26 26 25 24 24 23 23 22 21 20 20 19 19 18 17 17 17 17 17 18 17 18 18 18 18
23 23 27 27 26 28 30 29 31 31 30 30 31 31 31 33 30 29 28 27 27 28 28 27 27 26 25 24 24 23 23 22 21 20 19 18 19 19 19 18 17 17 18 18 18 18 18 18 18
23 25 26 26 27 27 28 30 30 30 31 30 31 32 31 29 30 28 28 27 27 28 27 27 27 26 25 24 24 23 23 22 21 20 19 18 18 18 17 17 18 18 18 18 18 18 18 17 17
23 26 27 26 27 27 28 30 29 30 30 31 31 32 31 29 28 28 27 27 28 27 27 26 27 26 25 25 24 23 22 22 21 19 18 18 18 18 18 17 17 17 17 18 18 18 18 18 17
26 26 26 28 28 28 29 30 30 30 31 32 30 30 32 28 27 28 27 26 26 28 27 25 26 26 25 25 24 23 22 21 20 20 18 18 18 18 18 17 17 17 17 17 17 17 18 18 17
27 26 27 26 27 28 29 31 29 31 31 32 31 31 32 30 28 26 27 25 26 26 26 25 24 25 25 25 24 23 22 21 21 20 19 18 18 18 17 17 16 16 16 16 16 17 17 17 17
26 27 26 26 28 28 30 30 30 31 31 30 29 31 32 32 28 27 25 25 24 23 24 24 24 23 22 21 23 23 22 21 20 19 19 18 18 18 17 16 16 16 16 16 16 16 16 16 17
24 26 27 27 27 30 29 30 29 30 30 30 30 31 32 27 26 24 24 23 24 23 22 23 23 23 22 21 21 22 21 21 20 19 19 18 17 17 16 16 16 15 15 15 16 16 16 16 16
26 26 27 29 29 29 29 27 28 29 30 30 30 31 29 27 25 27 26 26 25 24 23 23 25 22 22 21 20 20 19 19 18 18 17 17 17 16 16 16 16 15 15 15 16 16 16 16 17
26 26 28 28 29 27 28 28 29 29 29 31 30 30 31 30 27 27 27 28 27 25 24 23 23 23 22 20 20 19 19 18 17 18 18 17 16 16 16 16 16 16 16 16 16 16 17 16 17
25 26 27 28 28 27 27 28 27 29 29 30 30 30 30 30 29 27 27 27 27 26 24 23 23 22 21 20 20 19 19 18 18 17 18 17 16 16 15 16 16 15 16 15 16 16 16 16 16
24 26 27 27 27 27 27 26 27 28 29 30 30 29 29 29 29 27 27 27 26 25 24 22 22 23 22 21 20 20 19 19 19 18 18 17 16 16 16 16 16 15 16 15 15 15 16 16 16
27 26 27 27 27 27 27 27 28 28 29 29 29 29 30 30 29 28 25 25 25 24 24 22 23 22 21 21 22 21 20 20 19 18 18 18 16 16 16 16 16 16 16 16 15 16 15 16 15
25 25 25 25 26 26 26 26 27 29 29 29 29 29 29 29 29 27 27 25 25 24 24 21 22 22 22 22 21 21 20 19 19 18 18 17 17 16 15 15 15 16 16 16 16 15 15 15 15
24 24 25 27 26 27 26 27 30 30 29 29 29 29 28 29 29 28 27 25 24 24 21 23 21 22 22 22 21 21 20 19 19 18 18 17 17 16 15 15 15 15 16 16 15 15 15 15 15
23 25 24 26 26 27 26 28 30 29 28 28 28 29 28 28 28 27 26 25 23 23 21 23 21 21 22 21 21 20 20 19 18 18 17 18 16 15 15 15 16 15 15 15 15 15 15 15 16
24 23 24 24 27 27 28 27 28 27 27 27 28 28 28 28 28 28 26 24 21 22 22 24 21 21 21 21 20 19 19 19 18 18 18 17 16 15 15 15 15 14 14 15 14 14 15 15 15
25 25 25 27 27 26 27 27 27 27 28 28 28 28 28 28 29 26 24 21 19 19 21 20 19 20 20 19 18 18 18 18 18 18 18 16 16 16 15 14 14 15 14 15 14 15 15 15 15
23 23 24 25 25 25 26 26 27 27 27 28 28 28 28 28 28 26 21 19 19 19 19 19 19 20 20 19 18 19 19 18 18 18 17 16 16 15 15 14 14 15 14 14 14 14 15 15 15
23 23 24 24 26 25 25 25 26 28 27 28 28 28 28 27 27 26 21 19 19 19 18 19 18 20 20 19 19 19 19 18 17 17 16 15 16 16 14 14 14 14 14 14 14 13 14 15 15
22 24 24 24 23 24 25 24 26 27 27 28 28 28 28 28 27 24 21 19 19 19 18 19 19 19 20 19 19 18 19 19 17 16 15 15 15 15 14 14 14 14 14 14 14 14 15 15 16
23 24 23 23 23 24 24 23 25 27 26 28 29 29 29 28 27 24 21 20 19 18 19 18 18 19 19 19 19 19 18 17 16 15 15 14 14 14 14 14 14 14 14 14 14 14 14 15 16
24 24 24 23 24 22 24 23 24 26 27 28 29 30 28 26 22 21 20 19 19 19 19 18 18 18 19 19 19 19 18 17 17 16 15 15 14 15 14 14 14 15 15 15 14 14 14 15 16
23 23 22 22 22 22 25 24 24 27 28 28 28 30 27 22 21 20 20 21 20 20 19 19 19 18 18 18 18 18 17 17 16 15 15 14 14 14 14 15 15 15 16 16 15 15 15 15 15
23 23 23 22 23 25 23 23 24 27 28 28 29 28 25 21 21 21 21 21 21 20 19 20 19 19 18 18 18 18 18 17 16 15 15 14 15 15 14 15 15 15 16 15 16 15 15 15 16
23 22 25 24 23 24 24 24 26 27 27 28 27 25 23 21 21 21 21 21 21 20 19 20 20 19 19 19 18 18 18 18 16 15 14 14 14 14 15 15 15 15 15 15 16 16 15 15 15
25 25 22 23 22 22 24 24 26 28 29 29 28 26 22 21 21 21 21 21 20 20 20 20 19 20 19 19 19 18 18 17 16 15 14 14 14 14 15 15 15 15 15 15 15 15 15 15 15
23 23 24 24 24 23 23 26 28 29 30 30 29 26 23 21 21 21 21 20 20 20 20 19 19 19 19 19 19 19 18 17 16 15 15 15 14 15 15 15 15 15 15 15 15 15 14 15 15
25 25 24 23 21 24 22 25 26 27 28 27 27 24 22 22 22 22 22 21 21 20 20 19 19 20 20 19 19 19 17 16 16 16 15 15 15 15 15 15 16 16 15 15 15 15 14 14 14

GFSSGP_925_temp_006.txt.gz
Temp
23 23 25 27 30 31 32 33 35 34 35 36 35 35 36 36 36 34 32 30 29 29 26 24 26 26 26 25 25 24 24 23 23 23 22 21 21 20 20 20 19 18 17 17 17 17 18 18 18
24 24 27 32 31 33 35 35 34 35 35 36 36 35 35 35 37 36 35 30 29 28 25 24 26 26 26 25 25 24 24 23 23 22 22 21 20 20 20 19 18 18 18 18 18 18 18 18 18
24 26 31 32 32 33 35 35 35 35 35 35 35 35 36 36 35 35 32 29 29 27 25 24 27 27 26 25 25 24 24 23 23 22 21 20 20 20 19 18 18 18 18 18 18 18 18 18 18
26 29 31 31 32 33 34 35 35 35 35 35 35 35 36 35 34 33 30 29 29 27 26 25 27 26 26 25 25 24 24 23 22 21 20 20 19 19 19 18 18 18 18 18 18 18 18 18 18
27 32 32 32 33 34 34 35 35 35 35 35 35 35 35 36 32 31 30 29 29 28 27 26 26 26 26 25 25 24 24 23 22 21 20 19 19 18 18 18 17 17 18 18 18 18 18 18 18
30 32 31 33 34 35 34 35 35 35 36 36 35 35 35 34 33 32 31 30 30 29 27 27 25 26 26 25 25 24 23 23 22 21 20 19 19 18 18 18 17 17 17 17 17 18 18 18 18
30 32 32 33 34 34 34 35 35 35 36 35 36 34 36 36 33 32 31 31 30 30 28 27 24 23 25 25 25 24 23 23 22 21 20 19 18 18 18 18 18 17 17 17 17 17 17 17 17
31 32 31 33 33 33 34 34 35 35 35 35 34 34 35 35 32 32 31 31 31 30 29 28 26 24 23 22 23 24 23 22 21 20 20 19 18 18 18 18 18 17 16 16 16 16 16 17 16
31 30 31 32 33 33 35 34 34 34 33 34 34 34 35 33 32 32 32 32 31 30 29 28 27 26 25 25 23 21 22 21 20 20 19 19 19 20 19 19 18 17 16 15 16 16 16 16 16
29 30 32 34 34 34 35 34 34 32 33 34 35 36 35 34 33 33 33 33 32 30 29 28 27 26 25 26 24 21 22 21 21 20 20 19 20 19 19 18 17 17 16 15 16 16 17 17 19
30 30 33 34 34 34 33 33 34 33 32 33 34 34 35 34 34 34 33 33 33 32 30 28 26 25 25 25 24 23 23 22 21 20 20 19 19 19 19 19 19 19 18 18 19 19 19 20 20
29 31 32 33 34 34 32 32 32 33 32 33 34 34 34 34 34 34 34 34 33 32 31 29 27 24 23 25 24 24 23 22 21 21 19 19 19 19 19 19 20 19 19 19 19 19 19 18 19
30 30 32 33 32 32 32 31 32 32 32 33 33 33 33 34 34 33 33 32 32 32 31 29 26 24 23 23 24 24 23 22 22 21 20 19 20 20 19 19 19 19 19 19 19 19 18 19 19
31 31 31 32 32 32 31 31 32 32 32 32 33 33 34 34 34 33 33 32 31 31 31 29 26 24 22 22 23 22 22 22 21 21 21 19 19 19 19 18 17 17 17 18 19 18 19 19 19
30 29 30 30 31 31 31 30 30 33 32 32 33 34 34 34 34 34 33 32 31 30 29 28 26 23 22 22 22 22 22 21 22 21 20 19 18 19 18 17 17 17 17 16 17 17 17 18 19
28 29 28 30 30 30 30 29 32 34 34 34 33 33 33 33 34 33 32 32 31 29 29 27 25 23 21 22 21 22 23 22 22 21 20 19 18 18 17 16 16 16 16 16 16 17 18 19 19
28 27 29 30 32 31 30 29 32 34 33 32 32 33 33 33 33 32 32 31 30 29 27 25 23 24 21 21 21 22 21 21 21 21 20 20 19 18 17 16 16 16 16 16 16 17 18 18 19
27 28 28 29 32 31 30 30 31 33 33 32 32 32 33 32 33 33 32 31 29 27 25 23 23 23 21 21 21 22 21 21 21 21 20 20 19 18 17 16 16 16 15 16 16 17 17 18 18
28 29 29 30 31 30 30 30 31 32 32 31 32 32 32 32 33 33 32 29 28 24 23 22 22 22 21 22 22 22 22 22 21 21 20 19 19 18 17 16 15 15 15 16 16 16 16 17 17
27 27 28 30 30 30 29 29 30 31 31 31 31 32 32 33 33 33 32 27 25 23 22 22 22 21 21 22 23 23 23 22 22 21 19 19 18 17 17 16 16 16 16 16 16 16 16 16 16
27 26 27 27 29 29 28 27 28 30 31 32 32 32 32 32 33 32 31 26 24 23 22 22 21 20 22 22 21 20 20 21 21 21 20 19 18 18 17 16 16 16 16 16 16 15 16 17 16
26 27 27 27 27 26 29 27 29 30 30 31 31 32 33 33 33 33 30 26 24 23 22 22 20 21 21 21 22 22 23 23 22 20 20 19 18 18 17 16 17 16 16 16 16 16 16 16 16
27 27 27 27 26 26 27 27 28 30 30 30 31 32 33 34 33 33 29 26 24 22 22 21 21 21 20 21 21 21 22 21 21 20 18 18 17 17 17 17 17 17 17 16 17 16 16 17 17
28 26 27 27 26 25 27 27 28 30 30 31 33 33 33 33 30 29 27 24 23 23 22 21 21 20 20 20 21 21 20 20 21 20 20 19 16 17 17 17 17 17 16 17 17 17 17 16 16
27 26 25 24 25 25 29 28 29 30 31 32 32 32 32 30 28 27 25 25 24 23 23 22 21 21 21 21 21 20 20 19 19 19 19 19 17 18 17 17 17 16 16 17 17 17 17 17 17
26 26 27 24 26 28 29 27 29 30 32 32 33 33 32 29 27 27 26 25 25 24 23 23 22 21 21 21 21 20 19 21 20 18 19 19 17 19 17 17 17 17 17 17 16 16 17 17 17
26 27 28 28 28 27 29 29 30 31 31 32 32 32 31 28 27 26 26 26 25 24 23 23 22 22 21 21 21 20 19 19 19 18 17 18 18 17 17 17 17 18 18 17 17 17 17 17 17
28 28 26 28 25 25 28 28 28 30 32 32 33 32 29 28 27 26 26 26 25 24 23 23 22 22 21 21 21 20 19 19 18 17 18 18 17 18 17 17 18 18 18 18 17 16 17 17 18
27 27 27 28 28 27 26 28 30 30 32 33 33 32 29 28 27 27 26 25 24 23 23 22 22 22 21 21 21 21 20 19 18 18 18 17 17 17 18 18 18 18 18 17 17 16 17 18 17
28 28 27 27 26 27 27 27 32 31 31 31 33 30 29 28 28 27 27 26 25 24 23 23 22 22 22 22 22 21 20 19 18 18 18 17 17 18 18 18 18 19 18 18 17 16 15 16 17

GFSSGP_925_temp_009.txt.gz
Temp
24 24 28 31 32 34 35 36 39 37 37 38 38 38 38 38 37 36 36 35 34 32 25 25 27 26 25 25 25 25 24 24 23 23 22 22 21 20 20 20 19 18 18 18 18 18 18 18 18
26 27 30 33 33 35 37 38 37 38 38 38 38 38 38 37 39 39 38 34 33 31 26 24 27 26 25 25 25 25 24 24 23 23 22 22 21 20 20 19 18 18 18 18 18 18 18 18 18
26 29 32 33 34 35 37 35 38 38 38 38 38 38 38 37 38 37 34 33 33 31 27 25 27 26 26 25 25 25 25 24 23 23 22 21 21 20 19 19 18 18 18 18 18 18 18 18 18
29 30 32 32 34 37 37 38 38 38 38 38 38 37 38 38 37 36 34 33 33 30 28 26 26 27 26 25 25 25 25 24 23 23 22 21 21 20 19 19 18 18 18 18 18 18 18 18 18
30 33 33 34 34 37 38 38 38 37 38 38 38 37 37 36 35 34 33 33 33 31 29 26 25 27 27 25 26 25 25 24 23 23 22 21 20 20 19 18 18 18 18 18 18 18 18 18 18
31 33 33 34 36 37 38 38 38 37 38 38 37 37 37 37 36 35 34 34 33 32 30 29 26 26 26 25 25 25 25 24 23 23 22 20 20 19 18 18 18 18 18 17 17 18 18 18 18
31 33 33 34 35 37 38 38 37 37 38 38 38 36 37 38 35 35 35 34 34 34 31 30 25 24 25 25 25 25 25 24 24 23 21 20 20 19 18 18 18 18 18 17 17 17 17 18 17
32 33 32 34 34 35 38 37 38 37 37 39 36 35 36 38 36 35 36 35 35 34 33 31 29 24 22 22 23 24 24 24 23 22 21 20 20 19 19 19 19 18 17 17 16 16 16 17 17
32 31 31 33 34 35 38 37 38 38 36 37 37 37 37 36 35 35 35 35 35 35 34 32 31 28 25 25 23 22 23 23 22 21 21 20 19 21 20 20 19 19 18 17 17 16 16 16 16
31 31 32 35 36 36 37 37 38 37 36 36 36 37 37 37 36 36 36 36 36 35 34 33 30 29 27 27 26 22 22 21 21 21 21 20 20 21 21 20 19 19 18 18 18 17 17 17 19
31 31 33 35 36 36 36 36 37 36 35 36 36 36 37 37 36 36 36 36 36 36 35 33 31 29 28 27 27 24 24 23 23 22 22 21 21 22 21 21 21 19 19 19 19 18 18 20 20
31 33 33 34 35 35 35 36 36 36 35 36 36 36 36 36 36 36 36 36 36 36 35 33 31 28 27 28 28 27 25 24 24 23 22 21 21 21 21 21 22 21 21 21 21 21 20 20 20
32 33 34 35 35 35 36 35 35 35 36 36 36 35 35 36 36 36 36 35 35 34 34 34 31 28 26 26 28 26 26 25 24 24 23 21 22 22 22 21 20 20 20 20 20 20 19 19 19
33 33 33 34 34 35 34 34 35 35 35 35 35 35 35 36 36 36 36 35 35 34 34 33 31 28 25 25 26 25 26 26 24 24 23 22 21 21 21 21 20 19 19 19 20 19 19 18 19
33 32 33 33 34 34 34 32 33 35 35 35 35 36 36 36 36 36 35 35 34 34 33 31 31 28 25 24 25 25 25 24 24 23 23 22 21 21 20 20 19 18 18 17 17 18 18 19 20
31 31 30 32 33 34 33 30 33 35 35 34 35 36 36 36 36 36 35 34 33 33 32 31 31 28 25 24 24 25 25 23 25 24 23 21 20 20 20 19 17 17 17 17 16 17 18 19 19
30 29 30 31 34 33 33 31 33 35 34 34 34 35 35 35 35 35 34 34 33 32 31 31 29 28 24 23 24 24 24 24 24 24 23 23 21 21 20 20 18 17 16 17 17 16 16 18 19
28 29 30 30 33 34 33 33 34 35 34 34 34 35 35 35 34 35 35 34 33 32 31 29 28 27 24 23 23 24 24 23 24 24 23 23 22 21 20 19 17 17 17 17 16 16 17 17 18
30 30 31 32 34 33 32 32 34 34 33 33 34 34 35 34 35 35 35 34 33 31 30 27 25 25 24 23 23 24 24 24 24 23 23 21 21 21 20 18 17 17 17 16 16 16 16 17 17
29 29 30 31 33 32 32 31 32 33 33 33 33 33 34 34 34 35 35 34 30 29 27 25 24 24 23 24 24 25 25 24 24 24 23 21 21 21 19 18 17 16 16 17 17 17 16 16 16
29 28 29 30 31 32 31 30 31 32 32 33 33 33 33 34 34 34 34 34 29 27 25 24 24 23 23 24 24 24 24 24 23 23 22 22 21 20 19 18 17 17 17 17 16 16 16 16 16
28 30 30 29 29 28 31 29 31 32 32 33 33 34 34 34 34 35 35 31 28 26 25 24 23 22 23 23 23 23 24 24 25 23 23 21 20 19 19 17 17 17 18 16 16 16 16 16 17
29 30 30 30 29 29 29 29 30 32 32 33 33 34 34 34 34 35 35 30 28 26 25 23 22 23 22 23 23 23 24 24 23 23 21 20 19 18 18 18 17 18 17 17 17 17 16 16 16
30 30 30 30 29 27 29 29 29 31 33 33 34 34 35 35 35 35 32 28 27 25 24 22 22 22 22 23 22 23 23 23 23 22 22 19 18 18 18 19 19 18 18 17 18 18 17 16 17
29 28 27 26 27 27 30 29 30 33 34 34 34 34 34 34 33 32 29 28 26 25 24 23 23 22 22 22 22 22 22 21 21 21 21 19 18 18 18 19 19 18 17 18 18 18 18 17 17
29 28 27 25 27 28 30 29 31 34 34 34 34 34 34 32 31 30 29 28 27 25 24 24 23 22 22 22 22 22 21 22 22 21 22 20 19 19 18 18 18 17 17 18 18 18 18 18 17
28 29 30 30 30 30 32 32 33 34 34 33 34 34 34 31 30 29 28 28 27 25 25 24 23 23 23 22 22 22 21 22 20 19 19 20 19 19 19 19 18 18 19 19 18 17 18 18 18
29 30 28 30 28 28 31 31 31 32 33 34 34 34 33 31 30 29 29 28 26 26 25 24 23 23 23 23 22 22 21 21 20 19 20 20 19 20 19 19 19 19 19 19 18 17 17 17 17
29 29 29 29 30 29 29 30 33 32 33 34 35 35 32 31 30 29 29 27 26 25 25 24 24 23 23 23 23 21 21 21 20 19 19 19 19 19 19 20 20 20 20 19 18 17 17 18 17
29 29 29 29 28 30 31 31 34 33 33 34 34 33 32 31 30 30 29 28 27 26 25 24 24 24 23 23 23 21 21 21 19 19 19 19 19 19 20 20 20 20 19 18 17 17 17 17 18

GFSSGP_925_temp_015.txt.gz
Temp
26 25 25 24 24 26 26 29 32 34 32 33 36 35 35 33 32 28 32 33 33 32 30 29 28 28 28 27 27 26 25 25 24 23 23 22 21 21 20 19 19 18 18 18 18 18 18 18 18
25 25 25 24 25 25 26 31 31 31 32 35 36 36 35 32 33 32 31 33 33 31 30 28 28 28 27 27 27 26 25 25 24 23 23 22 21 20 20 20 19 18 18 18 18 18 18 18 18
25 25 24 24 25 26 27 32 33 32 34 35 35 37 36 33 33 33 33 32 31 29 28 27 27 27 27 27 27 26 25 25 24 24 23 22 21 20 19 19 19 18 18 18 18 18 18 18 18
24 25 25 25 26 29 30 32 32 31 31 33 34 35 34 35 34 34 32 32 31 29 28 28 27 27 26 27 26 26 25 24 24 23 23 22 21 20 20 19 18 18 18 18 18 18 18 18 18
24 23 23 25 27 30 32 34 32 32 33 33 33 34 32 33 35 34 32 32 32 29 29 29 28 27 26 26 26 26 25 24 24 24 23 22 21 21 20 19 18 18 18 18 18 18 18 18 18
23 25 24 24 28 31 33 34 34 32 33 34 35 34 32 35 35 35 35 32 32 32 30 29 29 28 27 27 26 25 25 24 24 24 23 23 22 21 20 20 19 18 18 18 18 18 18 18 18
23 22 24 26 28 30 33 34 34 34 34 35 36 34 31 32 35 35 35 34 30 32 31 29 28 28 28 28 26 25 25 25 24 24 23 23 22 21 21 21 20 19 19 19 19 18 18 17 18
25 24 24 25 28 29 32 34 33 35 35 37 36 33 33 32 36 36 36 36 35 30 31 29 28 28 28 27 26 26 25 24 24 23 23 23 22 22 21 21 20 20 20 19 19 19 18 18 17
27 22 23 26 27 30 32 33 34 36 35 35 34 34 33 35 36 36 35 36 36 29 30 28 28 27 27 27 27 26 25 24 23 23 23 22 21 22 22 21 20 20 19 19 19 19 19 18 17
25 23 25 27 28 29 31 32 33 34 33 33 34 35 34 35 35 34 33 32 35 35 29 29 28 28 27 26 26 26 26 24 23 23 23 22 21 22 21 21 21 21 20 20 19 20 19 18 17
26 25 27 28 29 30 30 31 33 33 32 33 32 33 33 34 34 33 33 34 34 35 30 28 29 29 27 24 24 25 25 25 23 23 23 22 22 21 21 21 21 21 20 20 20 19 19 19 18
25 27 28 28 29 29 29 32 32 32 31 32 33 33 33 31 30 32 33 35 35 35 36 28 29 27 26 24 25 25 25 24 23 23 22 21 21 21 21 21 21 21 21 20 20 20 19 19 19
26 27 28 29 29 30 30 31 31 32 33 33 33 33 31 30 30 32 34 35 35 35 35 33 29 29 27 25 25 25 25 24 23 23 22 21 21 21 21 21 21 21 20 20 19 19 19 19 19
26 27 28 29 29 30 30 31 31 32 32 33 33 32 31 30 30 31 32 33 35 35 34 33 32 29 27 26 25 25 24 23 24 23 23 22 21 21 21 21 21 21 20 19 20 19 19 19 19
25 25 27 28 29 30 31 30 30 32 31 32 31 32 31 31 31 29 33 33 35 34 35 34 32 30 27 26 26 25 24 24 24 23 23 22 21 21 21 21 21 20 20 20 19 19 18 18 18
24 25 24 27 28 30 30 28 30 31 32 31 32 33 33 29 30 32 34 33 34 34 34 34 32 31 29 27 26 26 25 25 24 23 23 22 22 21 21 21 21 20 19 19 18 18 18 18 18
22 22 23 25 28 29 28 28 30 31 31 31 31 32 32 32 29 31 34 34 34 34 34 33 32 31 30 27 26 26 26 25 24 24 23 22 22 21 21 21 20 20 19 18 18 17 17 17 17
22 23 24 25 27 28 28 28 30 30 31 31 31 31 31 31 29 30 34 35 34 33 33 33 32 31 29 26 25 25 25 25 24 24 23 23 22 22 21 21 20 19 18 18 17 17 17 16 17
24 24 25 26 28 27 27 28 29 30 31 30 30 27 28 27 27 30 31 33 34 34 34 33 30 28 25 24 24 24 24 24 24 23 23 23 22 21 21 20 20 19 18 18 17 16 16 17 17
22 22 23 26 28 27 27 27 29 29 29 28 28 27 27 28 28 28 30 32 33 33 32 30 29 26 24 24 23 23 24 23 24 24 23 22 22 21 21 21 20 19 18 17 17 16 16 16 17
22 22 23 24 25 27 26 26 27 29 29 29 29 28 28 30 27 27 27 27 30 28 29 27 26 24 23 22 23 23 23 23 23 23 23 23 22 21 20 20 19 18 18 17 17 16 16 16 16
21 24 25 25 24 23 26 24 26 27 28 29 29 29 28 29 29 29 27 25 25 25 26 25 24 23 23 23 23 23 22 22 23 23 22 22 21 20 20 19 18 18 17 17 17 17 16 16 16
22 25 24 25 24 24 25 23 26 26 27 27 29 28 28 28 26 25 26 24 23 24 24 24 23 23 23 23 23 24 23 23 23 22 21 21 20 20 19 18 18 17 17 17 17 16 16 16 16
24 23 24 24 23 21 24 24 26 26 27 28 28 29 30 29 29 25 23 23 22 23 23 23 23 23 23 23 24 24 23 23 21 21 20 20 19 19 18 18 18 18 17 17 17 17 17 16 16
22 21 19 19 20 21 25 24 26 26 27 29 28 27 27 23 22 23 22 22 21 21 21 22 22 22 23 23 23 22 22 22 21 21 20 20 19 18 18 18 18 18 17 17 17 17 17 17 17
20 21 19 18 20 22 25 24 25 29 29 28 30 29 25 24 23 22 21 21 21 21 21 21 22 21 22 22 22 21 22 21 21 21 20 20 19 18 18 18 18 18 17 17 17 17 17 17 17
20 19 23 21 22 23 24 26 27 29 29 28 29 27 24 23 23 22 21 21 21 20 20 21 22 22 22 21 21 21 21 21 20 20 20 19 19 19 18 18 18 18 18 18 18 18 17 17 18
20 23 20 21 20 20 24 25 25 27 28 28 27 25 24 24 23 22 22 21 21 21 21 21 22 22 22 21 21 21 20 20 20 19 19 19 19 19 18 19 19 19 19 19 18 18 18 17 18
19 20 20 21 21 21 21 23 28 28 27 28 26 26 25 24 23 22 22 21 21 21 21 22 22 22 22 21 21 21 21 20 20 19 19 19 19 19 19 19 19 19 19 19 18 18 18 18 18
18 19 21 19 21 22 22 24 28 31 29 28 26 26 25 24 24 23 22 22 21 21 21 22 22 22 22 22 21 21 20 20 19 20 20 19 19 19 19 20 20 19 19 18 18 18 17 18 18

GFSSGP_925_temp_021.txt.gz
Temp
23 23 23 23 24 21 23 25 28 29 31 32 31 32 31 30 30 28 29 30 30 30 27 26 27 27 26 27 26 26 26 25 25 24 24 23 23 23 22 22 22 21 21 20 20 19 18 18 18
23 23 24 22 22 22 22 26 29 30 31 31 31 32 30 31 31 28 28 29 30 31 29 28 27 27 27 27 26 26 26 25 25 24 24 23 23 22 22 21 21 21 20 20 19 19 18 18 17
24 23 23 23 22 23 25 28 30 30 30 32 33 32 31 31 30 28 31 32 30 30 29 28 28 28 27 27 27 26 26 25 25 24 24 23 23 22 21 21 20 20 19 18 18 18 18 18 18
23 22 22 23 23 24 26 28 29 29 31 31 32 31 31 32 31 33 32 31 31 30 29 29 28 28 28 28 27 27 26 26 25 24 24 24 23 22 21 21 20 20 18 18 18 18 18 18 18
23 20 21 22 24 25 27 28 29 29 30 32 32 30 31 32 33 33 33 32 32 30 29 28 28 28 28 27 27 27 26 26 26 25 24 24 23 22 21 21 20 19 18 18 18 18 18 18 18
22 20 21 22 24 27 29 29 30 30 31 31 31 31 30 31 33 32 32 32 31 31 30 28 28 28 28 27 27 27 26 26 25 25 24 24 23 22 21 21 21 20 19 18 18 18 18 18 18
21 20 21 23 25 26 29 29 31 31 31 31 31 32 30 31 32 32 29 28 28 28 27 27 28 28 28 28 27 27 26 26 25 25 24 24 23 22 21 21 21 20 19 18 18 18 18 17 18
21 20 22 23 25 25 29 29 31 31 31 32 32 30 31 31 33 32 27 27 26 27 29 27 26 27 27 27 27 26 26 26 25 25 24 23 23 22 21 21 21 20 20 19 19 19 18 17 17
22 20 20 23 24 26 27 29 31 31 31 29 30 32 31 35 33 31 28 27 26 25 25 25 27 27 26 27 26 26 26 25 25 24 24 23 22 22 21 21 21 20 20 20 20 19 18 18 17
20 18 21 23 26 26 27 28 29 31 30 29 29 30 32 33 33 28 27 26 26 26 27 26 25 26 26 25 25 25 25 24 24 24 23 22 22 21 22 21 21 20 20 20 19 19 19 18 18
20 22 23 24 25 26 26 27 27 28 27 29 28 29 30 30 29 28 29 28 28 31 27 27 27 26 25 24 24 24 24 24 24 23 23 22 21 21 21 21 21 20 20 20 19 19 19 18 18
21 22 24 24 25 25 25 26 27 26 27 28 29 29 28 29 28 27 29 29 30 29 30 29 27 26 25 23 23 23 23 24 24 23 22 21 21 21 21 21 21 20 20 20 19 19 19 19 19
21 22 23 23 23 24 25 25 26 26 27 28 28 28 28 27 26 29 31 32 32 28 30 29 28 27 26 23 22 22 22 24 23 22 22 21 21 21 21 21 21 20 20 20 20 19 19 19 19
21 22 22 22 23 23 24 25 26 27 28 28 28 28 27 26 26 27 28 28 31 33 32 31 29 28 24 23 23 23 21 23 22 20 20 21 21 21 21 21 20 20 20 20 20 20 19 19 19
20 20 22 22 22 23 25 25 25 27 28 28 28 29 28 25 26 25 29 29 32 32 33 32 30 29 25 23 23 23 22 21 21 20 20 20 21 21 21 21 21 20 20 20 20 19 19 18 18
20 19 19 22 23 23 25 23 27 27 27 27 27 26 27 27 27 29 30 31 32 32 31 33 31 29 27 24 22 21 21 21 21 20 19 20 21 22 21 21 21 20 20 20 19 19 18 18 18
17 17 18 21 23 23 24 24 26 26 27 26 27 27 27 26 25 27 30 30 30 31 31 30 30 28 28 23 23 22 21 20 20 19 19 21 22 21 21 21 20 20 20 19 19 18 18 18 17
17 18 20 20 22 23 23 23 25 25 25 25 25 26 27 27 27 28 29 30 30 30 30 29 29 28 25 22 21 21 21 20 19 19 20 22 21 21 20 20 20 20 19 19 18 18 18 17 18
18 18 19 21 22 22 22 22 23 24 24 25 26 26 26 24 25 27 28 29 29 30 29 29 29 26 24 22 21 20 20 19 19 20 21 22 22 22 21 20 20 20 19 19 18 18 17 16 15
17 17 17 19 20 21 20 20 22 23 24 24 25 25 25 25 25 26 26 27 28 29 30 29 28 27 25 22 21 21 19 18 19 21 21 22 22 21 21 20 20 20 19 18 18 17 16 15 15
17 17 17 18 20 21 20 20 21 23 23 24 24 23 23 23 24 24 23 24 27 27 29 28 29 29 26 22 21 21 20 19 19 20 21 21 22 22 21 21 20 20 19 18 17 16 16 15 15
16 18 19 19 19 17 22 19 22 23 24 23 24 22 22 24 23 22 24 22 23 26 28 28 27 25 22 22 21 21 20 19 18 19 21 21 21 21 21 20 20 19 18 17 17 16 16 15 15
17 18 18 19 18 18 18 17 21 21 22 23 25 24 24 22 23 22 23 21 25 24 24 24 23 21 21 21 22 21 20 20 20 21 21 19 20 20 20 20 19 18 18 17 17 16 16 15 15
19 18 17 18 16 15 18 18 21 21 22 22 22 22 23 22 22 21 18 18 18 18 19 19 19 19 20 21 22 22 21 20 19 18 19 19 19 19 19 18 18 18 18 17 17 16 16 16 15
18 15 13 14 14 16 19 19 21 21 22 23 22 22 22 22 21 19 18 17 17 18 18 18 19 19 21 21 21 22 22 21 20 19 19 19 18 18 18 18 18 18 18 17 17 16 16 16 15
14 14 13 15 15 17 20 18 19 21 23 24 24 25 22 22 18 17 17 17 17 17 18 18 19 19 21 21 21 21 21 21 21 21 20 19 19 19 18 18 18 18 17 17 17 17 17 16 16
16 14 16 15 16 16 17 19 21 23 25 24 23 22 21 18 17 17 17 17 17 17 17 18 19 19 20 20 20 20 21 21 20 20 20 20 19 18 18 18 18 18 17 17 17 17 17 16 16
16 17 15 13 15 15 17 18 20 22 22 23 23 22 19 17 17 17 17 16 16 17 18 19 19 19 19 20 20 20 20 20 20 20 19 19 18 18 18 18 18 17 17 17 17 17 17 16 17
15 15 15 15 15 15 16 17 19 22 22 22 24 21 17 17 18 17 16 16 17 17 17 18 18 19 19 20 20 20 20 20 19 19 19 19 19 18 18 18 18 18 18 18 17 17 17 17 17
16 15 14 13 15 14 16 18 22 23 22 21 21 20 18 17 17 17 17 16 17 16 17 17 18 19 20 20 20 19 19 19 19 19 19 19 18 18 18 18 18 18 18 17 17 17 17 17 17

GFSSGP_925_temp_024.txt.gz
Temp
23 23 23 22 23 21 23 24 26 28 29 30 30 29 29 29 29 27 27 29 31 30 28 27 27 27 27 27 26 25 25 25 25 25 24 24 24 23 23 23 22 21 21 20 20 20 19 19 19
23 23 22 21 22 22 23 25 27 28 30 29 28 29 30 31 29 29 27 29 30 30 29 28 27 27 27 27 27 26 25 25 25 25 24 24 23 23 23 23 22 21 20 19 19 18 18 18 18
23 23 22 22 21 22 24 26 28 29 29 29 30 31 30 31 29 29 30 32 30 29 29 29 28 28 28 27 26 26 25 25 25 25 25 24 23 23 23 22 22 21 20 18 18 18 18 18 18
22 21 20 21 22 24 25 27 28 27 30 29 30 31 31 31 29 32 32 31 30 29 29 29 28 28 27 27 26 26 25 25 25 25 25 24 24 23 23 22 21 21 20 18 18 18 18 18 18
22 20 21 21 23 24 25 26 27 28 29 31 30 30 31 31 31 33 33 30 30 29 29 28 29 28 28 27 26 26 26 26 25 25 25 24 24 23 22 21 21 21 20 18 18 18 18 18 18
20 19 20 22 23 26 26 26 28 29 30 30 30 29 30 31 31 32 32 30 29 28 28 28 28 28 28 27 27 26 26 26 25 25 25 24 23 22 22 21 21 20 19 19 18 18 18 18 18
21 20 21 22 24 25 26 27 28 30 30 30 29 30 30 31 33 31 31 30 29 27 27 26 27 27 27 27 26 26 26 26 25 25 24 24 23 22 22 22 21 20 19 19 19 18 18 18 18
20 20 21 21 24 25 27 28 28 29 30 31 31 29 29 31 31 29 28 27 27 27 28 28 26 27 27 26 26 26 26 26 25 24 24 24 23 23 22 21 21 20 19 19 19 19 19 18 18
20 19 19 22 23 26 27 26 28 30 30 30 31 29 31 31 31 29 28 27 27 25 25 25 26 24 25 25 24 25 26 25 25 24 24 23 23 22 21 21 21 20 20 19 19 19 19 18 18
20 18 20 23 25 26 26 26 26 27 27 29 29 28 31 32 31 29 26 26 26 26 27 28 26 26 25 24 24 23 24 24 25 24 24 23 23 23 22 21 21 21 20 20 20 19 19 19 19
19 21 22 23 24 25 25 25 26 26 26 27 28 28 29 29 29 27 27 28 28 31 28 29 28 27 26 24 23 23 23 24 24 24 23 23 22 22 21 21 21 20 20 20 19 19 19 19 19
19 20 23 23 24 25 24 25 24 25 26 26 27 27 26 26 25 24 26 29 30 30 31 29 28 27 25 24 23 23 22 23 23 23 22 22 22 21 21 21 21 21 20 20 19 19 19 19 19
20 21 22 23 23 23 24 23 24 25 26 26 26 27 25 24 24 28 28 29 29 29 31 31 30 28 26 24 22 22 22 22 22 22 22 21 20 21 21 21 21 21 21 20 19 19 19 19 19
20 21 21 21 21 22 23 24 24 25 25 25 26 26 26 25 24 26 27 28 28 29 30 31 31 31 25 25 23 23 22 21 20 21 21 20 20 20 21 21 20 21 20 20 20 19 19 19 19
19 19 20 20 20 21 23 23 24 25 26 26 26 26 26 25 25 23 28 27 30 31 31 31 30 29 27 27 25 23 21 20 21 20 20 22 20 20 21 21 20 21 20 20 19 19 19 19 19
19 18 19 22 20 22 23 23 26 25 25 26 26 26 25 24 24 26 28 27 29 29 30 30 29 28 28 26 25 22 21 21 21 21 20 20 19 19 21 21 21 21 20 19 19 19 19 19 18
16 19 16 19 21 21 23 23 24 26 25 24 23 24 24 26 24 25 28 29 30 31 32 31 29 28 28 27 23 22 20 21 20 19 19 18 17 20 20 20 21 21 19 19 19 19 18 18 18
16 16 19 19 20 21 20 22 23 24 24 23 23 23 23 23 22 25 27 29 30 31 30 29 29 28 26 24 22 20 21 20 19 19 18 18 18 20 20 20 20 20 19 19 19 18 18 17 17
17 17 17 19 20 19 20 21 22 21 21 22 23 24 24 25 24 25 27 29 30 29 29 29 28 28 23 21 19 19 18 18 18 18 18 19 19 20 20 19 20 20 19 19 19 18 17 16 15
16 16 16 17 19 19 18 18 19 20 20 21 22 22 21 20 21 22 24 26 27 27 28 29 30 28 24 22 20 20 19 17 18 18 19 20 20 20 19 19 19 20 19 18 18 17 16 15 15
16 16 16 17 18 19 18 19 20 21 21 22 22 22 22 22 22 22 22 23 27 25 28 28 28 27 23 21 20 20 19 17 17 18 19 19 19 20 20 21 20 19 19 19 18 17 16 15 14
14 17 18 18 17 16 19 17 20 21 21 22 22 22 22 19 21 22 22 20 24 25 27 27 27 25 23 20 20 20 18 16 17 18 19 20 19 19 20 20 20 19 19 18 17 17 16 15 14
15 17 16 17 16 16 17 15 20 21 20 20 22 23 22 21 19 21 22 22 23 23 23 23 24 22 21 20 21 20 20 19 19 19 19 19 18 20 20 20 20 19 18 18 17 16 16 15 15
17 16 15 15 14 13 17 16 19 19 21 22 22 20 21 21 20 19 19 19 18 17 18 18 19 19 19 20 21 21 20 18 17 18 18 18 19 18 19 19 19 18 18 18 17 16 16 16 15
16 13 12 12 12 15 17 16 20 19 20 20 21 21 20 19 19 19 18 17 18 17 17 17 18 18 19 20 20 21 21 19 19 19 20 20 19 18 19 19 18 18 18 17 17 16 16 16 15
14 13 11 14 14 14 18 16 17 19 20 20 20 20 20 19 18 18 17 18 18 17 17 17 18 18 19 19 19 20 20 20 19 20 20 20 19 18 18 18 18 17 17 17 17 16 16 16 16
15 13 15 14 15 14 15 16 19 21 22 22 21 20 19 19 18 17 17 17 16 16 17 17 18 18 19 19 19 20 21 21 20 19 19 18 18 18 18 17 17 17 17 17 16 16 16 16 16
16 15 14 11 14 14 15 16 17 19 20 20 20 20 19 18 17 17 17 16 15 16 17 18 18 18 18 19 20 20 20 20 20 19 18 18 18 18 17 17 17 17 17 17 17 17 17 16 16
15 13 14 13 12 14 15 15 17 19 21 19 20 20 18 16 18 17 16 15 15 16 17 17 18 18 18 19 19 19 19 19 19 19 18 19 18 18 18 17 17 17 17 17 17 17 16 16 16
13 14 13 12 14 13 13 14 19 19 17 18 19 17 16 18 18 17 16 15 15 15 16 17 17 18 19 19 20 20 19 19 19 18 18 18 18 18 18 17 18 18 17 17 17 17 16 16 16

GFSSGP_925_temp_027.txt.gz
Temp
22 22 23 24 28 26 28 30 29 30 31 32 31 32 34 35 33 33 28 28 30 30 27 26 27 27 26 26 26 26 26 25 25 24 24 24 24 24 23 23 23 23 22 21 20 20 19 19 19
22 23 23 25 27 28 30 29 30 32 32 31 32 32 32 34 33 32 30 27 30 30 29 27 27 27 27 26 25 26 25 25 25 24 25 24 24 23 23 22 22 23 22 21 19 19 19 19 19
22 23 27 27 26 28 31 29 30 31 32 31 33 33 33 34 32 32 30 31 30 29 29 29 28 28 27 26 26 26 25 25 25 24 25 24 24 23 23 22 22 21 21 21 19 19 19 19 18
22 25 25 26 27 27 28 31 30 31 33 31 33 33 33 32 33 32 32 31 30 29 29 29 29 28 27 27 26 26 25 25 25 24 24 24 24 23 23 22 21 20 20 19 19 19 18 19 18
22 24 26 25 26 28 28 29 30 31 31 32 32 33 33 32 30 31 31 31 29 28 27 28 29 28 27 27 26 26 25 25 25 24 24 24 24 23 23 22 22 21 19 18 18 18 18 18 18
24 24 25 26 27 28 29 30 30 32 32 32 32 32 33 31 30 31 31 31 29 30 29 26 27 28 27 27 26 26 26 25 24 24 24 24 24 23 22 22 21 21 20 19 18 18 18 18 18
25 25 25 25 26 28 30 31 31 32 32 32 32 32 33 33 31 28 27 27 29 28 28 26 24 26 27 27 26 26 25 25 25 24 24 24 23 23 22 22 21 21 20 19 19 18 18 18 18
25 25 25 25 26 28 30 30 31 32 32 32 32 32 32 32 28 26 26 26 26 26 25 23 23 22 22 22 26 26 26 25 25 24 24 24 24 22 22 22 22 21 20 19 19 19 19 19 19
23 24 25 26 25 27 28 29 30 31 31 31 32 33 32 29 28 27 27 26 26 25 26 26 25 23 22 22 22 25 25 25 24 24 24 23 20 20 20 20 22 21 20 20 20 19 19 19 19
24 24 25 27 27 27 28 28 29 29 30 30 30 29 31 31 31 32 32 31 28 27 25 26 27 26 23 22 21 21 21 22 22 21 21 21 19 19 20 20 21 21 20 20 19 19 19 18 19
24 24 26 26 27 27 28 28 29 29 29 30 30 29 30 30 31 30 31 31 31 30 27 27 26 25 23 22 21 21 21 20 21 20 20 20 19 19 19 19 19 19 19 19 19 18 18 19 19
23 25 26 26 26 26 26 29 28 28 29 29 28 29 29 29 29 30 30 30 30 29 30 30 29 27 27 23 22 21 21 20 21 20 19 19 19 19 19 19 19 18 19 19 19 19 19 18 18
22 25 25 25 26 26 26 26 27 27 28 28 28 28 28 29 29 28 28 29 28 28 31 31 30 30 28 25 22 21 21 21 21 20 19 20 19 19 19 19 20 20 20 19 19 19 18 18 18
24 24 24 25 25 25 25 26 27 27 28 27 28 28 28 28 28 28 28 28 28 29 30 31 30 31 29 29 25 23 21 21 20 20 19 19 19 19 19 19 19 22 21 19 19 19 18 18 18
22 22 23 23 24 24 25 24 26 27 27 27 27 28 28 29 29 29 29 28 28 28 30 30 30 30 29 29 28 23 21 20 20 20 19 18 19 18 18 19 20 21 22 22 20 18 17 18 18
20 21 22 24 23 24 24 24 27 29 28 27 28 28 29 29 29 29 28 27 27 28 28 30 30 28 28 28 27 23 21 20 20 20 19 18 18 17 17 19 19 22 22 20 18 17 17 18 18
20 21 22 23 25 24 24 25 28 28 28 28 28 28 27 28 28 27 26 26 28 28 29 29 27 26 26 26 25 21 20 20 20 20 19 18 17 17 17 20 20 22 20 18 18 17 18 18 18
20 20 22 22 24 24 24 24 26 27 26 27 27 28 27 28 28 27 26 26 26 28 29 28 28 29 26 23 21 20 20 19 20 19 19 18 17 17 18 18 18 19 18 18 18 18 17 18 18
20 20 21 22 23 24 23 24 25 26 25 25 26 26 26 27 27 27 26 26 26 26 27 29 29 28 25 21 21 21 20 20 19 19 18 17 17 17 17 17 17 17 18 18 18 19 18 17 16
18 19 19 20 21 21 22 22 23 23 23 24 24 25 25 26 26 26 26 26 25 26 28 28 28 27 25 21 21 21 21 20 19 18 17 17 17 17 17 17 17 17 18 17 18 18 16 16 15
18 18 19 19 20 21 21 21 23 24 25 25 25 25 25 25 25 26 26 26 25 25 26 25 27 26 25 21 20 19 18 17 17 18 17 17 17 17 17 16 18 19 18 19 18 19 17 17 15
17 18 19 19 19 20 21 20 23 24 24 24 25 25 25 25 26 26 26 26 25 25 24 25 25 25 24 20 20 20 22 19 18 17 18 17 17 17 17 18 18 17 18 19 19 18 17 16 17
17 19 18 18 19 19 20 19 23 25 24 25 25 25 25 26 26 26 26 26 25 24 22 21 22 22 20 19 20 20 21 20 19 19 18 18 17 17 17 17 17 18 20 19 17 16 15 16 17
19 18 18 19 19 17 19 19 23 24 25 25 26 26 26 26 25 25 25 23 23 22 20 18 19 19 19 19 19 20 20 19 19 18 17 17 17 17 17 18 18 18 17 17 17 16 15 15 16
17 17 16 16 17 17 21 19 22 24 24 24 25 26 26 26 25 25 25 25 23 21 20 17 19 19 19 19 19 19 19 19 19 18 18 18 18 18 17 17 18 18 17 17 16 15 15 15 15
17 17 17 16 17 18 20 19 22 23 24 24 24 25 25 25 26 24 24 23 22 20 18 19 20 19 19 19 19 18 18 19 19 19 19 19 19 18 17 17 18 18 17 16 16 16 16 15 15
17 16 19 17 18 19 20 21 22 23 24 25 25 24 25 25 24 24 21 20 19 18 19 20 19 19 19 18 18 18 18 18 19 18 18 19 18 18 18 18 17 17 16 16 16 16 16 16 15
16 18 16 17 17 17 20 20 22 23 23 23 24 23 23 23 22 21 19 19 18 20 19 19 19 19 19 19 19 19 18 18 18 18 18 18 17 17 17 17 16 16 16 16 16 17 17 16 16
12 16 17 18 18 18 19 21 22 23 21 22 23 23 22 21 22 19 19 19 20 19 19 19 19 19 19 19 18 18 18 18 18 18 18 17 17 17 17 17 17 17 17 16 17 17 17 16 16
15 15 17 17 17 18 18 20 22 21 21 21 23 24 22 20 19 18 19 20 21 20 20 19 19 19 19 19 19 18 18 18 17 17 17 17 17 17 17 17 17 17 17 17 16 17 16 16 16

GFSSGP_925_temp_030.txt.gz
Temp
23 22 25 28 30 32 34 35 36 35 35 35 35 36 37 38 37 36 33 33 32 30 26 26 27 27 26 26 26 26 25 25 24 24 23 23 23 23 23 22 22 22 22 21 20 21 20 19 19
24 24 27 31 31 33 35 36 35 36 36 36 36 35 35 36 38 37 35 30 30 29 26 25 27 27 27 26 26 26 25 25 25 24 24 24 24 23 23 23 22 21 20 19 20 19 19 19 19
24 26 31 31 32 33 36 36 36 35 36 35 35 36 36 36 37 37 35 30 30 28 26 25 27 27 27 27 26 26 26 25 25 24 24 24 24 24 23 23 22 21 19 19 19 19 19 19 19
26 29 30 30 32 34 35 35 35 35 36 36 36 36 36 36 37 37 32 30 29 28 27 26 27 27 27 27 26 26 25 25 25 25 25 25 24 24 23 23 22 22 20 19 19 19 19 19 19
26 29 30 31 32 34 35 35 34 34 35 36 36 36 36 35 34 34 32 31 31 29 28 26 25 27 27 26 26 25 25 25 25 25 24 24 24 24 23 23 22 22 21 19 18 19 19 19 18
29 30 30 31 32 33 34 35 35 35 36 36 36 36 36 35 34 33 33 32 32 30 28 27 26 26 26 26 26 25 25 25 25 24 24 24 23 23 23 22 22 22 21 19 19 19 19 19 18
28 29 30 31 31 32 34 35 34 35 36 36 37 36 36 36 35 33 33 33 32 31 28 27 24 23 25 26 26 26 25 25 25 24 24 23 23 23 23 22 22 21 20 20 19 19 19 18 18
29 30 29 31 30 30 34 34 35 35 36 36 36 35 35 36 33 33 33 33 32 31 30 28 26 25 24 23 26 25 25 25 25 24 24 24 23 22 22 22 22 21 20 20 19 19 19 18 18
28 28 29 31 31 31 32 33 35 35 35 35 36 36 35 33 33 34 34 33 33 32 30 29 28 26 26 26 24 24 24 24 24 24 23 23 21 21 20 20 20 21 20 19 19 19 19 19 19
27 28 30 32 32 30 31 32 34 33 34 34 34 34 33 33 34 35 35 35 34 33 32 30 27 26 26 26 26 23 23 21 21 21 21 21 21 22 22 21 20 20 20 19 19 19 19 19 22
28 28 31 32 31 30 31 32 33 32 33 35 35 34 33 33 33 34 35 35 36 34 33 31 28 25 25 26 26 25 24 23 22 22 21 21 22 22 22 22 20 20 19 20 19 19 20 21 22
26 29 29 31 31 29 29 32 32 33 33 35 35 34 33 33 33 33 33 34 34 34 33 31 29 25 24 26 25 26 25 24 24 23 22 22 21 22 22 23 22 21 21 21 22 22 22 21 21
27 28 29 30 29 29 29 30 31 32 33 34 33 33 32 33 33 32 31 31 32 32 32 31 30 26 24 23 26 26 26 25 25 24 23 22 23 22 22 23 23 22 23 21 21 22 22 21 21
28 27 28 29 28 29 28 29 30 31 33 32 32 32 32 33 33 32 32 31 31 32 31 31 30 28 25 25 24 26 24 26 25 25 24 21 22 23 22 22 22 23 22 21 22 22 22 21 22
25 25 27 27 28 28 28 27 29 31 32 32 31 32 32 32 32 33 32 32 31 31 31 29 29 28 26 26 25 25 26 25 25 25 24 23 21 22 22 22 22 23 22 21 21 21 20 21 22
23 24 24 27 28 28 27 26 30 31 31 31 31 32 32 33 33 33 33 32 30 29 30 29 30 30 28 27 26 26 26 26 25 25 24 22 21 21 21 23 22 23 22 21 22 20 21 21 22
24 24 25 26 29 27 26 26 29 31 32 31 32 32 33 33 33 32 31 30 29 29 29 28 28 28 27 26 26 25 25 24 25 25 24 23 21 20 21 22 22 21 22 21 21 21 21 21 20
23 24 25 26 28 28 27 27 28 31 31 31 32 32 32 32 32 32 31 30 29 28 27 27 27 27 25 25 25 25 26 24 24 24 24 23 21 20 20 21 21 21 22 21 21 21 21 19 20
23 24 25 26 28 27 27 27 28 29 30 30 30 30 31 31 31 31 30 29 28 28 27 27 26 26 25 25 26 26 26 25 24 24 23 22 21 20 19 21 20 20 21 21 20 19 20 20 19
22 21 23 24 26 26 26 26 27 29 29 30 30 30 30 30 30 31 30 29 28 28 27 27 26 26 24 25 25 27 27 26 25 23 22 21 19 19 20 20 21 20 21 20 19 20 20 19 18
20 20 21 23 24 24 24 24 26 27 28 28 28 28 29 29 29 29 30 29 29 28 28 27 27 26 25 24 25 23 24 23 24 23 21 19 20 20 20 20 20 19 20 19 20 19 20 20 18
19 21 21 21 22 22 24 23 26 27 28 28 28 29 29 30 30 30 30 30 29 29 28 27 26 25 25 24 25 24 25 25 24 23 20 20 20 19 19 18 19 19 20 21 20 19 21 19 19
19 21 21 21 21 22 22 23 25 27 27 28 29 29 30 30 30 31 31 31 30 29 28 27 25 25 24 24 24 24 25 25 23 22 20 19 18 18 18 19 19 19 21 20 20 20 19 18 20
20 20 20 20 20 20 22 23 25 27 28 29 30 30 30 30 31 31 30 29 28 27 27 26 24 24 23 23 22 23 24 25 24 23 18 18 18 19 19 20 20 20 21 20 19 19 19 19 20
19 18 18 18 19 18 23 22 24 27 28 28 28 29 29 29 30 30 30 30 29 28 27 25 24 24 23 22 23 23 23 23 23 18 19 20 19 20 19 20 20 19 19 20 19 19 19 18 19
18 18 18 18 20 21 23 22 24 27 28 28 28 28 29 29 30 30 30 29 30 27 24 24 24 23 23 23 23 22 22 23 22 23 22 22 22 21 20 20 20 20 19 19 18 19 19 19 18
18 16 19 19 20 22 24 23 25 27 27 27 28 27 28 28 28 29 29 28 27 24 24 25 24 23 23 22 22 22 23 23 23 22 22 22 22 20 20 20 20 19 19 19 18 20 19 19 18
17 16 13 19 17 19 23 24 24 26 26 27 26 26 27 27 28 28 27 24 24 25 24 24 23 23 22 22 22 22 22 22 21 21 22 22 20 20 20 19 19 19 19 19 18 19 19 18 17
14 14 15 18 20 21 23 25 27 26 25 25 25 26 26 25 27 25 22 23 25 24 24 23 23 23 23 23 22 22 22 21 21 21 21 20 20 20 20 19 19 19 19 19 18 18 18 18 18
16 14 14 13 17 21 20 23 26 25 25 24 25 26 26 22 21 21 22 26 26 25 24 24 24 23 23 22 22 22 22 21 21 21 20 20 20 20 20 20 20 20 20 19 19 19 19 18 17

GFSSGP_925_temp_033.txt.gz
Temp
23 24 28 31 32 34 35 37 40 39 39 39 39 38 38 40 38 36 38 37 36 33 27 28 28 27 27 27 26 26 25 24 24 24 23 23 23 22 23 22 22 21 21 21 21 21 20 20 20
24 27 29 33 32 34 36 39 38 39 39 39 39 39 38 39 40 38 37 35 34 31 27 26 27 27 27 27 27 26 25 24 24 24 23 23 23 23 23 23 22 22 22 21 19 19 19 20 19
25 28 31 32 33 34 37 39 39 39 39 38 38 39 39 39 39 39 35 34 34 30 27 26 28 28 27 27 27 26 25 25 24 24 23 24 24 24 23 22 22 22 21 20 19 19 19 19 19
28 31 31 32 33 35 37 39 39 39 38 39 39 37 39 38 39 37 34 34 33 30 28 27 28 27 27 27 27 26 25 25 24 24 24 24 24 23 23 23 22 22 20 19 19 19 19 19 19
28 31 31 32 33 36 38 38 38 37 38 38 38 37 37 37 38 36 35 34 33 32 30 27 26 27 26 26 26 26 26 25 25 24 24 24 24 23 23 23 22 21 19 19 19 19 19 19 19
30 32 30 31 34 36 38 38 38 37 38 39 38 38 38 37 37 36 36 35 35 33 31 28 25 26 26 26 26 26 26 25 25 25 25 24 24 24 23 23 22 21 20 19 19 19 19 19 19
29 32 31 33 34 35 36 38 37 37 38 39 39 38 38 38 37 37 37 37 36 34 32 29 24 24 24 25 26 26 26 26 25 25 25 25 24 24 23 23 22 21 20 19 19 19 19 19 19
30 31 31 33 33 34 37 37 38 37 38 40 39 37 37 38 37 37 37 37 36 35 33 32 27 24 23 22 24 25 26 26 25 25 25 24 24 23 23 22 22 22 21 19 19 19 19 19 19
31 29 30 32 32 34 36 35 37 38 38 38 38 38 38 37 37 37 37 37 37 36 35 33 31 27 25 26 23 24 24 25 25 24 24 24 21 21 21 21 21 22 21 20 20 20 20 19 19
29 30 30 33 34 34 35 35 36 37 36 37 37 37 36 36 37 38 38 37 37 36 35 33 31 29 28 28 28 23 22 21 21 21 21 21 21 22 22 22 21 21 20 20 21 21 21 19 21
29 30 32 33 34 35 34 33 35 36 36 36 36 36 36 37 37 38 38 37 37 36 36 35 31 29 29 29 29 26 24 23 22 21 22 21 22 23 23 23 21 20 20 20 19 19 19 20 21
28 30 31 32 33 34 33 33 34 35 36 37 38 38 37 36 36 36 36 37 37 37 36 35 33 28 27 29 28 28 28 26 24 23 22 22 22 23 24 23 23 21 21 21 21 21 21 21 22
29 30 31 32 31 32 33 32 32 34 36 37 37 37 36 36 36 36 35 34 34 34 34 34 33 30 26 25 29 28 28 28 27 26 24 22 23 23 23 24 24 23 23 21 23 22 22 22 22
30 30 31 31 31 31 31 31 31 33 35 36 36 36 36 35 34 34 35 34 34 33 33 33 33 31 27 26 26 27 27 28 28 27 26 23 23 24 24 23 24 25 23 24 23 24 24 23 23
27 27 29 30 31 31 31 29 29 32 34 34 35 35 35 35 35 35 34 34 33 33 33 32 31 31 28 27 26 26 28 28 28 28 27 26 23 24 24 24 24 24 24 24 24 23 23 23 22
25 27 26 29 30 31 30 28 30 32 32 33 34 35 35 35 36 35 35 34 34 33 32 31 32 32 29 27 27 27 28 28 29 28 28 26 24 23 24 24 24 24 24 24 23 23 24 23 23
24 25 27 28 30 30 30 29 31 31 32 33 33 34 35 35 36 35 35 35 33 32 31 30 30 30 30 29 28 28 27 28 28 29 28 27 24 23 22 23 24 24 24 24 23 23 23 23 23
25 26 27 27 30 30 29 30 30 31 31 31 32 33 34 35 35 35 35 33 32 31 30 29 28 29 29 29 27 27 28 28 27 28 28 27 24 23 22 23 23 23 23 24 23 23 23 23 23
25 25 26 29 31 29 29 30 31 32 31 31 32 33 34 35 35 35 34 33 32 31 30 29 28 27 27 28 28 28 29 29 28 27 27 26 25 23 22 22 23 23 23 23 23 22 22 21 21
23 23 24 26 28 29 29 29 30 31 32 32 31 32 33 33 34 34 33 32 31 30 29 28 28 27 27 28 27 29 30 30 29 27 26 25 24 23 22 21 23 22 23 22 22 21 21 22 21
22 22 23 24 26 27 27 26 28 30 31 31 31 32 32 32 33 33 32 32 31 31 30 29 28 27 27 27 28 27 27 27 29 27 25 24 23 22 21 21 22 22 22 23 21 20 21 22 19
21 23 23 22 23 23 26 24 27 28 29 29 31 31 31 31 32 32 31 32 31 31 30 30 29 28 27 26 27 28 28 28 28 27 26 23 22 21 21 20 21 22 21 23 20 20 22 20 20
21 23 23 23 22 23 24 24 26 29 29 29 30 31 31 31 31 32 32 32 32 32 31 30 29 27 26 26 25 27 27 28 28 27 23 22 21 20 20 20 20 21 21 21 21 21 20 20 22
23 22 22 22 22 22 23 24 25 27 28 30 31 31 32 32 32 32 33 32 32 31 31 30 29 27 26 25 25 25 26 27 27 26 22 21 19 19 19 20 20 21 21 22 21 20 20 20 21
21 20 19 19 19 19 23 23 25 27 29 31 31 32 32 32 32 32 32 33 32 31 30 29 28 27 26 25 25 25 26 26 26 22 20 19 19 19 19 20 20 21 21 20 21 21 21 20 21
20 20 19 17 19 21 23 21 24 28 29 30 30 30 31 31 31 31 32 32 33 31 30 29 28 27 26 25 25 25 25 25 23 22 20 20 21 21 20 21 21 21 21 21 21 20 20 20 20
20 19 21 19 19 18 19 21 26 27 29 29 29 30 30 30 31 31 32 32 32 32 29 27 27 26 25 25 24 24 24 25 24 23 22 23 23 21 21 21 21 21 22 21 20 21 20 20 20
20 21 17 14 16 17 20 22 25 26 27 29 29 29 29 29 30 31 31 31 30 28 27 27 26 25 25 25 24 24 24 23 23 23 22 22 22 22 22 21 21 21 21 20 20 21 20 20 18
13 15 17 17 17 17 20 21 27 27 28 28 28 28 29 27 31 30 30 28 28 28 27 26 26 25 25 24 23 22 22 22 22 22 22 22 22 22 22 22 21 21 21 20 20 20 21 20 18
21 18 17 12 14 20 20 20 23 28 29 28 27 27 29 25 24 23 26 29 29 28 27 26 26 26 24 23 23 22 23 23 22 22 22 22 22 22 22 22 21 21 21 20 20 20 21 19 18

GFSSGP_925_temp_036.txt.gz
Temp
24 25 27 31 30 32 32 34 38 39 41 42 40 40 39 39 35 33 37 36 33 31 31 31 30 29 29 28 27 26 25 25 25 24 24 23 22 22 22 22 22 22 22 22 22 21 21 21 21
24 26 29 31 30 31 33 37 37 40 41 41 40 39 39 38 38 37 36 35 33 31 31 31 30 30 29 28 28 26 26 25 25 24 24 23 22 22 22 22 22 22 21 21 21 21 20 20 20
24 27 30 30 30 30 34 38 39 41 40 40 39 40 39 38 38 37 35 34 32 29 31 30 30 30 29 28 27 26 26 25 25 24 24 23 23 23 23 23 23 22 21 20 19 19 19 20 20
27 30 30 29 30 33 34 36 38 40 39 39 39 38 40 39 38 35 34 33 31 28 30 30 30 29 28 28 28 27 26 25 25 25 24 23 23 23 23 23 23 22 21 19 19 19 20 19 20
28 30 29 30 32 33 35 37 39 39 39 39 39 38 38 38 37 34 34 32 31 29 28 28 29 29 29 28 28 27 27 26 26 25 25 24 23 23 23 23 23 22 21 20 19 20 20 19 19
28 30 29 29 32 34 36 37 39 38 39 39 39 39 39 38 35 34 34 34 33 31 29 28 28 29 28 28 28 27 27 26 26 25 25 24 24 23 23 23 23 22 21 20 20 20 20 20 20
28 29 29 31 32 34 35 37 37 38 38 38 40 38 39 38 37 36 35 35 35 32 30 28 27 27 28 28 28 27 27 27 26 25 25 24 24 24 23 23 23 22 22 21 20 20 21 20 20
29 28 28 31 32 33 36 37 38 38 37 39 40 35 33 36 38 37 37 37 36 34 31 26 25 26 26 26 26 26 26 26 26 25 25 24 24 24 23 23 23 23 22 21 21 21 20 20 20
30 28 28 29 31 33 36 36 38 39 38 39 39 37 36 38 38 38 38 38 37 35 34 30 26 24 24 23 24 25 25 25 25 25 25 25 24 23 23 23 23 23 22 20 21 21 19 19 20
28 28 28 31 32 33 35 35 36 36 37 37 38 36 37 36 35 37 38 38 38 36 34 33 29 27 25 25 24 25 25 25 25 25 25 24 24 22 22 22 22 21 21 21 21 20 19 20 20
27 27 29 31 33 34 34 34 36 35 35 37 37 37 37 37 37 37 38 38 38 37 36 34 31 29 27 27 27 25 24 24 24 24 23 22 22 22 21 21 21 21 20 21 21 20 20 20 20
27 29 29 30 32 32 32 34 34 34 35 37 38 38 37 37 37 37 38 38 37 35 34 34 31 30 29 28 29 26 25 24 23 22 22 21 21 21 22 22 22 22 20 20 20 19 20 20 20
28 29 30 31 30 31 32 32 33 34 35 36 37 38 37 36 36 36 36 36 35 34 34 34 32 30 29 30 29 28 26 25 24 23 23 22 21 21 22 23 23 21 20 21 21 20 20 20 21
28 29 30 31 31 31 31 31 32 33 34 35 35 36 36 35 34 35 35 35 35 34 34 33 33 32 30 29 29 28 29 28 26 25 24 23 22 22 22 22 23 23 21 21 21 21 21 22 22
27 26 28 29 30 31 31 30 30 33 33 33 34 35 36 36 35 35 35 34 34 34 34 33 33 31 31 29 29 28 27 28 28 27 26 25 23 22 22 23 23 23 23 23 22 22 23 23 23
25 26 26 28 29 30 30 29 31 32 32 32 33 34 35 35 36 36 35 34 34 34 33 33 32 32 31 29 28 27 28 27 27 28 28 27 26 23 23 23 23 23 24 23 23 23 23 23 23
24 23 25 27 29 29 29 29 31 32 31 30 31 32 33 34 35 35 35 35 34 34 33 32 31 31 29 28 28 27 27 27 28 28 28 28 26 24 23 23 24 23 24 24 24 23 23 23 23
24 25 26 26 28 29 29 29 30 31 32 31 31 31 32 33 33 35 35 35 35 33 31 30 30 30 30 29 28 27 27 27 27 27 28 28 27 24 23 23 24 24 23 24 24 23 23 23 23
25 25 25 26 28 28 29 29 31 31 31 31 31 31 31 31 33 34 34 34 34 32 31 30 30 30 29 28 28 28 27 27 27 28 28 28 27 25 23 22 23 23 23 23 23 23 23 23 23
24 23 23 24 26 26 27 27 29 31 31 31 31 31 31 32 33 33 33 33 33 32 31 30 29 28 28 28 27 28 28 28 29 29 28 27 27 25 23 22 22 22 23 23 23 23 22 22 22
23 23 23 23 24 25 25 26 27 29 31 31 31 32 32 31 31 32 32 32 32 32 31 30 29 28 29 27 27 27 27 28 28 29 28 27 26 24 23 22 22 22 22 22 23 22 22 21 21
21 24 24 23 22 21 25 23 26 28 29 29 30 31 31 31 32 32 32 31 31 31 31 30 29 28 28 27 26 27 27 26 28 28 27 25 24 24 22 22 22 22 22 22 22 21 21 21 21
22 24 23 23 22 22 23 22 24 27 28 29 30 31 30 30 31 31 31 31 31 31 31 30 30 29 28 27 26 26 26 27 28 28 27 24 23 23 22 21 21 21 21 22 22 20 20 20 20
22 22 22 22 22 21 22 23 23 26 27 29 30 31 31 31 30 30 30 31 31 31 31 30 30 28 28 27 27 26 26 27 28 26 23 22 21 21 21 21 21 21 21 21 21 21 20 20 20
19 21 19 19 20 20 23 23 24 25 27 29 29 30 31 32 32 30 30 30 30 31 31 31 30 28 28 26 25 25 26 26 26 25 22 21 20 20 20 20 21 20 21 21 21 20 20 20 20
16 17 17 17 18 20 22 21 23 25 27 28 29 30 31 31 32 32 31 30 31 30 31 30 30 28 27 26 26 25 24 25 25 23 21 20 20 20 20 20 20 20 21 20 20 20 19 19 20
18 20 21 18 19 18 19 22 23 25 25 26 28 29 30 30 30 31 31 31 31 31 30 30 29 28 27 26 25 25 24 26 22 21 21 20 20 20 20 20 20 21 20 20 20 20 20 20 20
21 21 18 18 15 16 19 20 22 24 25 26 27 29 30 30 30 30 30 30 31 31 29 28 28 27 26 25 25 24 25 25 23 22 21 21 21 21 20 20 20 21 21 21 20 20 20 20 20
20 17 16 16 14 14 16 19 24 20 19 23 27 29 29 29 29 28 31 31 30 29 28 26 26 26 25 25 24 24 24 23 22 22 22 22 21 21 21 21 21 21 21 21 20 20 20 20 19
21 19 15 15 16 18 17 18 21 16 15 15 25 26 28 29 27 26 29 29 29 28 27 26 26 24 23 23 23 22 22 22 22 22 22 22 21 21 21 22 22 21 21 20 20 20 20 20 19

GFSSGP_925_temp_042.txt.gz
Temp
24 24 25 24 23 19 21 23 26 27 29 31 31 32 32 32 32 30 30 31 32 30 30 29 30 30 30 29 28 27 27 26 25 25 25 24 24 23 23 23 23 23 22 22 22 21 21 22 22
24 25 24 21 21 20 20 24 27 28 30 30 32 33 32 33 31 27 28 31 33 32 30 29 30 30 30 30 29 28 27 27 26 25 25 25 24 24 24 24 23 23 23 23 22 21 21 21 21
24 24 21 21 19 20 22 26 27 29 30 31 31 33 32 32 30 29 31 28 33 32 31 30 29 30 30 30 29 28 27 27 26 26 25 25 25 24 24 24 24 24 23 23 22 21 21 22 22
24 22 20 21 21 22 25 26 27 28 30 32 33 33 33 33 32 32 32 29 33 31 31 30 29 30 30 30 30 29 28 27 27 26 26 26 25 25 24 24 24 24 24 23 23 22 22 22 22
23 21 20 20 21 24 27 27 27 29 29 31 33 34 32 33 32 30 30 31 32 31 31 30 29 30 31 30 30 29 28 27 27 26 26 26 26 25 24 24 24 24 24 23 23 22 22 21 21
22 21 20 22 24 26 27 28 28 28 30 31 33 33 30 30 28 27 29 30 33 32 30 29 28 30 30 30 30 29 29 28 27 27 27 27 27 25 25 25 24 24 24 23 23 23 21 21 20
22 20 20 22 24 25 27 29 29 29 29 30 34 31 30 30 29 26 27 28 29 31 29 28 26 29 30 30 30 29 29 28 27 27 27 27 27 26 25 25 25 24 24 23 23 23 22 21 20
21 20 21 22 24 24 27 29 29 30 31 32 35 31 29 31 29 27 26 26 25 26 28 28 26 28 29 29 29 29 29 29 28 27 27 27 26 26 25 25 24 24 24 23 23 23 22 22 20
24 19 19 22 24 26 27 27 29 30 30 31 33 34 30 32 30 29 27 26 25 25 26 27 26 27 29 29 29 29 28 28 28 27 26 26 25 25 24 24 24 24 23 23 23 22 21 21 20
20 18 21 24 25 25 26 27 28 28 28 29 30 31 32 31 30 28 27 26 25 24 25 26 26 27 28 28 28 28 28 28 27 27 26 25 25 25 24 24 24 24 23 23 23 22 21 21 21
20 21 23 24 25 26 26 27 28 27 27 27 29 31 30 30 31 29 28 29 26 25 24 24 24 25 28 27 28 28 28 28 27 27 26 25 25 24 23 23 23 23 23 22 22 22 20 21 21
20 22 23 24 25 25 25 27 27 27 27 29 29 30 30 29 24 30 25 26 28 28 27 27 24 23 23 27 28 28 28 28 28 27 26 25 24 23 23 23 23 23 23 22 22 22 21 22 22
20 21 22 23 23 24 26 26 26 27 28 29 29 30 29 27 27 28 24 27 28 28 27 28 27 25 23 22 26 28 28 28 28 28 26 26 25 24 23 23 23 23 22 22 22 21 21 21 22
19 20 20 21 22 23 24 26 27 28 29 29 29 30 29 29 26 25 26 26 29 29 28 29 29 31 28 25 24 29 28 28 28 28 28 26 25 25 24 23 23 22 22 22 21 22 21 21 21
19 19 19 21 22 23 24 24 25 28 28 28 29 29 29 29 29 26 26 25 28 30 31 31 31 32 30 25 25 28 28 27 27 28 27 26 25 24 23 23 23 23 22 21 21 21 21 20 21
18 18 17 20 21 23 23 23 25 26 26 27 27 29 29 28 29 29 31 28 29 31 29 30 30 27 26 25 27 30 28 28 28 27 26 26 25 25 24 22 22 22 22 21 21 21 20 20 20
16 15 17 18 20 22 22 22 25 25 25 26 27 27 28 29 27 30 31 31 30 27 30 30 27 26 25 27 30 31 30 29 28 27 27 26 25 25 24 23 22 22 22 21 20 20 20 20 20
16 17 18 19 21 21 20 20 22 23 23 23 25 26 27 28 28 28 31 32 28 30 30 28 30 31 32 31 29 28 28 28 28 27 26 26 26 26 25 23 22 21 21 21 20 20 20 20 21
18 18 18 19 21 21 19 20 20 21 21 21 21 23 25 26 28 28 30 31 32 32 29 29 28 31 29 29 26 24 24 27 27 26 26 26 26 26 26 24 22 21 21 21 21 20 19 19 21
19 18 18 20 21 21 20 20 21 21 21 21 21 22 23 24 26 28 29 29 29 31 31 31 29 28 29 28 27 26 25 26 27 27 27 26 26 26 25 25 23 21 20 21 21 21 20 20 21
17 17 17 18 20 20 20 19 20 21 21 21 21 21 21 22 23 25 28 28 29 28 30 31 31 29 28 28 26 26 26 26 26 26 26 27 26 26 25 25 23 21 21 21 22 21 20 20 20
16 18 18 18 16 15 20 17 19 20 20 20 20 20 20 21 22 23 25 25 26 28 30 30 29 27 28 28 28 27 27 25 28 28 28 27 27 26 25 25 24 22 22 22 22 22 21 21 20
17 18 17 17 16 15 17 15 18 19 19 20 21 20 20 21 20 21 23 24 28 28 28 30 30 28 28 28 29 28 26 28 28 27 27 27 27 26 26 25 23 22 22 22 22 21 21 21 21
18 16 15 15 14 15 17 16 18 17 19 20 21 20 22 21 22 21 22 24 25 29 28 28 27 29 29 29 29 28 28 27 25 26 25 25 25 24 24 24 23 23 22 22 21 21 21 21 21
16 12 10 11 12 14 17 16 18 19 19 16 15 15 15 16 18 19 20 21 24 25 27 28 27 26 28 28 28 28 27 27 26 26 25 25 23 22 22 23 22 22 22 21 21 21 21 21 20
14 14 11 11 12 13 15 14 17 19 16 15 16 16 16 15 15 15 17 21 23 24 25 26 26 25 27 27 28 27 26 25 26 26 25 25 23 23 23 22 22 21 21 21 21 21 21 20 19
15 12 15 13 13 12 12 14 16 17 15 15 15 16 16 15 15 15 17 18 21 23 25 25 25 24 26 27 27 25 25 24 25 25 24 24 23 22 22 21 21 21 21 20 21 20 20 20 19
15 16 13 10 12 12 13 14 15 15 14 14 15 15 15 15 15 15 15 17 18 21 24 25 26 27 27 26 25 23 23 24 24 24 23 22 22 22 21 20 21 21 21 20 20 20 20 19 19
14 13 12 11 11 11 11 13 13 13 12 12 14 15 14 15 14 14 15 16 17 19 20 25 24 24 24 25 25 24 24 23 23 23 22 22 21 21 20 20 20 21 20 20 20 20 19 19 19
15 13 12 9 11 11 11 13 14 12 12 13 14 14 14 15 13 14 14 16 16 18 20 22 23 24 25 25 24 24 23 23 22 21 21 21 20 20 20 20 20 20 20 19 20 19 19 19 19

GFSSGP_925_temp_048.txt.gz
Temp
22 23 24 23 22 18 19 21 22 25 27 28 28 29 29 29 28 27 28 29 31 30 27 25 25 25 25 25 25 25 25 25 25 25 24 24 24 23 23 23 22 22 23 23 23 23 22 22 22
23 22 23 19 20 20 19 21 23 25 27 25 26 27 27 28 28 29 25 27 32 31 27 26 25 26 26 26 26 26 26 26 25 25 25 24 24 24 23 23 23 23 23 23 23 23 23 22 22
22 22 21 20 17 19 21 22 23 26 25 25 27 28 29 29 29 27 30 29 30 30 27 26 25 27 27 27 27 27 27 26 26 26 25 25 24 24 24 24 24 24 24 23 23 23 23 22 21
22 21 18 20 21 21 23 25 23 24 26 26 28 27 29 29 28 28 29 27 29 29 27 26 25 27 28 28 27 27 27 27 26 26 26 25 25 25 25 24 24 24 24 24 24 23 23 22 22
22 19 20 20 20 22 24 24 24 25 25 26 27 28 28 26 26 27 27 25 28 27 27 26 25 27 28 29 28 28 28 27 27 27 26 25 25 25 25 25 25 25 24 24 24 24 23 23 22
20 19 19 20 23 25 25 25 25 26 26 26 26 27 28 25 24 24 27 25 26 26 27 26 24 27 28 28 28 28 28 28 28 27 27 26 26 25 25 25 25 25 24 24 24 24 23 22 21
20 19 19 21 23 25 26 26 26 25 25 27 26 27 26 26 24 24 25 25 26 25 25 25 24 27 27 27 27 28 28 28 28 28 28 27 27 26 25 25 25 25 24 24 24 24 23 22 22
19 19 20 20 24 24 25 25 26 25 25 26 27 26 25 25 23 24 24 24 23 24 25 25 23 24 27 27 27 27 28 28 28 28 28 27 27 26 25 25 25 24 24 24 24 24 23 23 23
21 18 17 22 23 24 25 25 26 26 26 25 27 28 27 24 23 23 23 23 23 23 23 25 23 25 26 27 27 27 26 27 27 27 26 26 25 25 24 24 24 24 24 24 24 24 24 23 22
20 16 19 22 24 23 24 25 24 25 24 25 25 26 27 27 25 25 24 22 23 23 23 25 24 26 26 28 27 27 25 25 25 25 25 25 25 25 24 24 24 24 24 24 24 23 23 22 22
19 17 21 23 23 23 23 23 25 24 24 25 24 25 27 26 26 26 27 25 24 25 25 25 25 25 27 27 27 26 25 25 25 25 24 23 23 23 23 23 23 23 24 23 23 23 22 22 22
19 19 21 22 22 22 22 23 24 24 24 25 24 24 25 25 24 25 26 26 25 25 25 23 24 24 26 27 27 26 26 25 25 24 23 23 24 23 23 23 23 23 24 23 23 23 22 22 21
18 19 19 19 19 20 21 22 23 23 24 25 25 24 24 24 24 26 26 26 26 24 23 24 23 24 27 27 27 27 25 27 26 24 25 23 23 23 23 24 23 23 24 23 23 22 22 22 21
18 18 18 19 20 20 21 22 23 24 25 25 25 24 24 23 24 25 25 25 25 25 25 26 25 24 26 27 26 27 27 27 27 26 26 25 25 25 24 24 23 23 24 23 22 22 22 21 21
18 17 17 18 19 20 20 20 21 23 25 25 24 24 24 24 25 24 26 26 26 26 25 31 28 25 26 26 27 26 28 27 28 28 27 27 26 26 25 24 24 24 25 23 22 22 21 20 20
16 15 16 18 19 20 20 20 22 21 23 23 23 23 23 22 23 25 27 26 25 26 26 25 25 25 25 26 29 28 28 28 28 28 27 26 26 26 24 24 24 23 24 23 21 21 21 20 20
13 15 16 17 18 19 19 18 21 20 21 21 22 23 23 21 22 25 27 27 27 25 25 24 23 24 25 25 23 27 23 26 32 30 28 29 26 25 24 24 24 23 23 22 21 21 20 20 20
15 15 15 16 17 17 16 16 18 19 19 19 20 21 21 21 21 23 25 26 27 27 26 26 26 25 25 24 23 24 24 25 24 27 30 31 27 25 25 25 23 22 22 21 21 20 20 19 20
16 15 15 16 17 16 16 16 17 18 18 18 19 20 20 20 20 23 24 25 26 27 27 27 24 27 25 24 24 24 24 25 26 26 26 24 26 25 25 23 24 23 21 22 21 20 18 18 18
16 16 15 15 17 17 16 16 18 18 18 19 19 19 19 19 20 20 22 23 24 24 26 26 25 26 27 26 26 26 26 26 26 25 25 25 23 24 25 26 24 23 21 20 20 19 17 17 18
16 16 15 15 15 15 15 17 17 18 18 19 18 18 18 18 18 18 19 20 20 21 23 24 25 25 25 26 26 25 25 25 26 26 26 25 24 24 26 26 24 23 21 20 20 19 19 17 17
16 16 16 15 14 12 16 12 16 16 17 17 17 17 17 16 16 16 16 17 18 20 21 22 24 25 26 26 24 25 24 24 26 27 26 25 24 26 26 25 24 23 22 20 20 20 19 17 17
15 17 16 15 13 12 13 12 15 16 16 17 18 19 16 15 14 14 15 16 18 19 19 20 22 23 24 24 25 26 24 25 27 26 25 24 26 26 27 25 25 23 22 21 20 20 19 18 18
16 15 13 11 10 10 12 12 13 15 16 16 17 16 16 15 14 14 15 15 16 18 18 19 19 21 22 22 24 24 24 24 23 24 23 25 27 26 25 26 24 24 22 22 21 20 20 19 18
14 11 10 11 11 12 13 12 14 15 17 17 17 15 15 14 13 13 13 14 15 16 17 18 18 20 20 20 22 23 23 23 23 23 24 26 26 26 26 25 25 24 23 22 20 20 19 19 19
13 11 10 11 11 13 14 11 13 15 15 15 15 14 14 13 12 12 12 12 14 15 16 17 18 18 21 20 21 22 21 21 22 23 25 27 28 27 26 25 25 24 22 20 19 20 20 20 20
13 11 12 11 10 7 12 12 14 15 15 14 14 14 13 13 12 12 13 13 14 14 15 16 17 18 20 21 21 21 21 21 22 23 24 26 26 25 25 24 24 22 20 20 20 20 20 20 19
13 13 11 8 10 11 12 12 13 14 15 14 14 14 13 12 13 14 12 12 14 14 15 16 16 17 19 21 22 22 23 22 22 23 25 25 25 24 24 23 23 20 20 20 20 20 20 20 19
12 11 10 10 9 10 12 13 13 14 14 13 14 14 12 12 14 14 14 14 14 14 14 15 16 17 19 21 22 22 23 23 23 23 24 24 23 23 23 23 21 20 20 20 20 20 20 20 19
12 12 10 11 11 9 11 13 14 13 13 12 12 12 12 13 14 14 14 14 13 13 13 14 15 15 18 20 21 22 22 21 21 22 22 22 22 22 22 21 20 20 20 20 20 19 20 19 18